This is the latest recevied weather packets stored in our database for station/object K6FAK-13. If no packets are shown the sender has not sent any weather packets the latest 1 day(s).
| Time | Temp. | Humidity | Pressure | Rain* | Wind** | Luminosity | Snow |
|---|---|---|---|---|---|---|---|
| 1777980773 | 11.67° C | 99% | 1016.2 hPa | 0 mm | 3.13 m/s, 218° | 0 W/m² | - |
| 1777980468 | 11.67° C | 99% | 1016.2 hPa | 0 mm | 3.13 m/s, 206° | 0 W/m² | - |
| 1777980166 | 11.67° C | 99% | 1016 hPa | 0 mm | 2.24 m/s, 207° | 0 W/m² | - |
| 1777979861 | 11.67° C | 99% | 1016.1 hPa | 0 mm | 1.79 m/s, 212° | 0 W/m² | - |
| 1777979557 | 11.67° C | 99% | 1016.3 hPa | 0 mm | 2.24 m/s, 219° | 0 W/m² | - |
| 1777979253 | 11.67° C | 99% | 1016.3 hPa | 0 mm | 0.89 m/s, 199° | 0 W/m² | - |
| 1777978951 | 11.67° C | 99% | 1016.2 hPa | 0 mm | 0.45 m/s, 202° | 0 W/m² | - |
| 1777978647 | 11.67° C | 99% | 1016.2 hPa | 0 mm | 1.34 m/s, 226° | 0 W/m² | - |
| 1777978343 | 11.67° C | 99% | 1016 hPa | 0 mm | 1.34 m/s, 191° | 0 W/m² | - |
| 1777978040 | 11.67° C | 99% | 1016.3 hPa | 0 mm | 1.34 m/s, 216° | 0 W/m² | - |
| 1777977737 | 11.67° C | 99% | 1016.3 hPa | 0 mm | 0 m/s | 0 W/m² | - |
| 1777977433 | 11.67° C | 99% | 1016.4 hPa | 0 mm | 0.45 m/s, 186° | 0 W/m² | - |
| 1777977131 | 11.67° C | 99% | 1016.4 hPa | 0 mm | 0.89 m/s, 209° | 0 W/m² | - |
| 1777976828 | 11.67° C | 99% | 1016.2 hPa | 0 mm | 1.34 m/s, 220° | 0 W/m² | - |
| 1777976526 | 11.67° C | 99% | 1016.4 hPa | 0 mm | 1.79 m/s, 172° | 0 W/m² | - |
| 1777976225 | 11.67° C | 99% | 1016.5 hPa | 0 mm | 2.24 m/s, 211° | 0 W/m² | - |
| 1777975921 | 11.67° C | 99% | 1016.6 hPa | 0 mm | 0 m/s | 0 W/m² | - |
| 1777975617 | 11.67° C | 99% | 1016.4 hPa | 0 mm | 0.45 m/s, 154° | 0 W/m² | - |
| 1777975314 | 11.67° C | 99% | 1016.7 hPa | 0 mm | 0.45 m/s, 199° | 0 W/m² | - |
| 1777975010 | 11.67° C | 99% | 1016.5 hPa | 0 mm | 1.79 m/s, 210° | 0 W/m² | - |
| 1777974708 | 11.67° C | 99% | 1016.5 hPa | 0 mm | 1.34 m/s, 216° | 0 W/m² | - |
| 1777974403 | 11.67° C | 99% | 1016.6 hPa | 0 mm | 1.79 m/s, 196° | 0 W/m² | - |
| 1777974100 | 11.67° C | 99% | 1016.8 hPa | 0 mm | 0.89 m/s, 187° | 0 W/m² | - |
| 1777973796 | 11.67° C | 99% | 1016.7 hPa | 0 mm | 0.89 m/s, 207° | 0 W/m² | - |
| 1777973494 | 11.67° C | 99% | 1016.9 hPa | 0 mm | 0.89 m/s, 219° | 0 W/m² | - |
* Rain latest hour (hover to see other rain measurements)
** Current wind speed in m/s (hover to see current wind gust speed)